Location: Saratoga Springs
(43.0831°N, 73.7850°W)
Time: 22:20:20
(UTC-04:00)

Vanguard 1 Rocket - Pass Details

Date: 15 April 2024
Orbit: 651 x 4220 km, 34.3° (Epoch: 20 May)

Event Time Altitude Azimuth Distance (km) Brightness Sun altitude
Rises 00:08:32 0° 267° (W) 4,374 11.0 -35.9°
Reaches altitude 10° 00:10:59 10° 262° (W) 3,712 10.5 -36.0°
Enters shadow 00:16:18 38° 238° (WSW) 2,752 9.5 -36.2°
Maximum altitude 00:20:44 52° 190° (S) 2,769 - -36.4°
Exits shadow 00:39:01 10° 122° (ESE) 6,642 11.4 -36.8°
Drops below altitude 10° 00:39:14 10° 122° (ESE) 6,691 11.5 -36.9°
Sets 00:45:33 0° 119° (ESE) 8,094 12.0 -36.9°
